,Coso Junction,Coso Junction
,PM10_1HR,PM10_1HR
,,
Date,Value,Null Code
01-Mar-2017 00:00,6,
01-Mar-2017 01:00,4.9,
01-Mar-2017 02:00,5,
01-Mar-2017 03:00,5.1,
01-Mar-2017 04:00,6.6,
01-Mar-2017 05:00,5,
01-Mar-2017 06:00,5.1,
01-Mar-2017 07:00,6.2,
01-Mar-2017 08:00,7,
01-Mar-2017 09:00,6.5,
01-Mar-2017 10:00,4.2,
01-Mar-2017 11:00,4.7,
01-Mar-2017 12:00,4.4,
01-Mar-2017 13:00,8.3,
01-Mar-2017 14:00,7.3,
01-Mar-2017 15:00,6.5,
01-Mar-2017 16:00,3.8,
01-Mar-2017 17:00,-2.4,
01-Mar-2017 18:00,6.3,
01-Mar-2017 19:00,4.6,
01-Mar-2017 20:00,5.6,
01-Mar-2017 21:00,5.3,
01-Mar-2017 22:00,5.6,
01-Mar-2017 23:00,8.1,
02-Mar-2017 00:00,4.5,
02-Mar-2017 01:00,4.1,
02-Mar-2017 02:00,4.4,
02-Mar-2017 03:00,5.8,
02-Mar-2017 04:00,4.3,
02-Mar-2017 05:00,4.7,
02-Mar-2017 06:00,5.5,
02-Mar-2017 07:00,6.9,
02-Mar-2017 08:00,6.7,
02-Mar-2017 09:00,5.4,
02-Mar-2017 10:00,4.7,
02-Mar-2017 11:00,5.1,
02-Mar-2017 12:00,5.8,
02-Mar-2017 13:00,4,
02-Mar-2017 14:00,0.5,
02-Mar-2017 15:00,3.9,
02-Mar-2017 16:00,8.9,
02-Mar-2017 17:00,15.8,
02-Mar-2017 18:00,5.4,
02-Mar-2017 19:00,4.7,
02-Mar-2017 20:00,5.6,
02-Mar-2017 21:00,5.3,
02-Mar-2017 22:00,15.3,
02-Mar-2017 23:00,9.5,
03-Mar-2017 00:00,7.4,
03-Mar-2017 01:00,3.1,
03-Mar-2017 02:00,2.9,
03-Mar-2017 03:00,4.8,
03-Mar-2017 04:00,5,
03-Mar-2017 05:00,4.8,
03-Mar-2017 06:00,6,
03-Mar-2017 07:00,7.5,
03-Mar-2017 08:00,7.5,
03-Mar-2017 09:00,5.6,
03-Mar-2017 10:00,7.2,
03-Mar-2017 11:00,4.1,
03-Mar-2017 12:00,3.2,
03-Mar-2017 13:00,5.2,
03-Mar-2017 14:00,5,
03-Mar-2017 15:00,6.1,
03-Mar-2017 16:00,9.2,
03-Mar-2017 17:00,6.2,
03-Mar-2017 18:00,4.3,
03-Mar-2017 19:00,5.2,
03-Mar-2017 20:00,6,
03-Mar-2017 21:00,5.4,
03-Mar-2017 22:00,9.7,
03-Mar-2017 23:00,8.6,
04-Mar-2017 00:00,8.7,
04-Mar-2017 01:00,8.2,
04-Mar-2017 02:00,5.6,
04-Mar-2017 03:00,7.2,
04-Mar-2017 04:00,5.7,
04-Mar-2017 05:00,5.7,
04-Mar-2017 06:00,6,
04-Mar-2017 07:00,6,
04-Mar-2017 08:00,10.3,
04-Mar-2017 09:00,8.8,
04-Mar-2017 10:00,10.1,
04-Mar-2017 11:00,7.3,
04-Mar-2017 12:00,6,
04-Mar-2017 13:00,32.5,
04-Mar-2017 14:00,63.2,
04-Mar-2017 15:00,21.4,
04-Mar-2017 16:00,11.5,
04-Mar-2017 17:00,5.7,
04-Mar-2017 18:00,2.5,
04-Mar-2017 19:00,3.2,
04-Mar-2017 20:00,6.6,
04-Mar-2017 21:00,7,
04-Mar-2017 22:00,9.4,
04-Mar-2017 23:00,10.3,
05-Mar-2017 00:00,15.1,
05-Mar-2017 01:00,13,
05-Mar-2017 02:00,11.3,
05-Mar-2017 03:00,9.5,
05-Mar-2017 04:00,6.1,
05-Mar-2017 05:00,5.8,
05-Mar-2017 06:00,7.4,
05-Mar-2017 07:00,15.9,
05-Mar-2017 08:00,34.4,
05-Mar-2017 09:00,29.9,
05-Mar-2017 10:00,57.4,
05-Mar-2017 11:00,161.3,
05-Mar-2017 12:00,5.7,
05-Mar-2017 13:00,8.9,
05-Mar-2017 14:00,8,
05-Mar-2017 15:00,52.7,
05-Mar-2017 16:00,17.5,
05-Mar-2017 17:00,8.8,
05-Mar-2017 18:00,6.9,
05-Mar-2017 19:00,5.5,
05-Mar-2017 20:00,5.4,
05-Mar-2017 21:00,4.1,
05-Mar-2017 22:00,9.3,
05-Mar-2017 23:00,2.7,
06-Mar-2017 00:00,4.9,
06-Mar-2017 01:00,4,
06-Mar-2017 02:00,4,
06-Mar-2017 03:00,5.4,
06-Mar-2017 04:00,4.7,
06-Mar-2017 05:00,4,
06-Mar-2017 06:00,5.2,
06-Mar-2017 07:00,5.4,
06-Mar-2017 08:00,5,
06-Mar-2017 09:00,4.8,
06-Mar-2017 10:00,8,
06-Mar-2017 11:00,9.9,
06-Mar-2017 12:00,8.2,
06-Mar-2017 13:00,6.2,
06-Mar-2017 14:00,9.9,
06-Mar-2017 15:00,7.9,
06-Mar-2017 16:00,5.1,
06-Mar-2017 17:00,6.4,
06-Mar-2017 18:00,6.1,
06-Mar-2017 19:00,6.6,
06-Mar-2017 20:00,6.4,
06-Mar-2017 21:00,5.5,
06-Mar-2017 22:00,5.4,
06-Mar-2017 23:00,6.1,
07-Mar-2017 00:00,8.7,
07-Mar-2017 01:00,7.1,
07-Mar-2017 02:00,5.4,
07-Mar-2017 03:00,5.2,
07-Mar-2017 04:00,6.2,
07-Mar-2017 05:00,5.1,
07-Mar-2017 06:00,6.3,
07-Mar-2017 07:00,8.1,
07-Mar-2017 08:00,7.7,
07-Mar-2017 09:00,6.6,
07-Mar-2017 10:00,7,
07-Mar-2017 11:00,6.9,
07-Mar-2017 12:00,6.8,
07-Mar-2017 13:00,7.1,
07-Mar-2017 14:00,5.6,
07-Mar-2017 15:00,6.2,
07-Mar-2017 16:00,7.9,
07-Mar-2017 17:00,11.6,
07-Mar-2017 18:00,6.8,
07-Mar-2017 19:00,5.7,
07-Mar-2017 20:00,6,
07-Mar-2017 21:00,6.6,
07-Mar-2017 22:00,5.9,
07-Mar-2017 23:00,6,
08-Mar-2017 00:00,6.1,
08-Mar-2017 01:00,4.6,
08-Mar-2017 02:00,4.9,
08-Mar-2017 03:00,6.6,
08-Mar-2017 04:00,6.9,
08-Mar-2017 05:00,7,
08-Mar-2017 06:00,8.1,
08-Mar-2017 07:00,8.7,
08-Mar-2017 08:00,8.3,
08-Mar-2017 09:00,8.4,
08-Mar-2017 10:00,10.9,
08-Mar-2017 11:00,8,
08-Mar-2017 12:00,5.5,
08-Mar-2017 13:00,5.8,
08-Mar-2017 14:00,7.8,
08-Mar-2017 15:00,7.9,
08-Mar-2017 16:00,8.2,
08-Mar-2017 17:00,11.5,
08-Mar-2017 18:00,8.6,
08-Mar-2017 19:00,7.6,
08-Mar-2017 20:00,4.9,
08-Mar-2017 21:00,5.9,
08-Mar-2017 22:00,5.8,
08-Mar-2017 23:00,11.5,
09-Mar-2017 00:00,6.9,
09-Mar-2017 01:00,6,
09-Mar-2017 02:00,4.7,
09-Mar-2017 03:00,6.1,
09-Mar-2017 04:00,6.2,
09-Mar-2017 05:00,6.6,
09-Mar-2017 06:00,7.5,
09-Mar-2017 07:00,8.1,
09-Mar-2017 08:00,10.8,
09-Mar-2017 09:00,8.2,
09-Mar-2017 10:00,8.9,
09-Mar-2017 11:00,5.5,
09-Mar-2017 12:00,2.3,
09-Mar-2017 13:00,5.4,
09-Mar-2017 14:00,6.5,
09-Mar-2017 15:00,7.7,
09-Mar-2017 16:00,6.5,
09-Mar-2017 17:00,,BA
09-Mar-2017 18:00,6.9,
09-Mar-2017 19:00,5.1,
09-Mar-2017 20:00,5.9,
09-Mar-2017 21:00,6.3,
09-Mar-2017 22:00,5.7,
09-Mar-2017 23:00,4.9,
10-Mar-2017 00:00,14.4,
10-Mar-2017 01:00,5.9,
10-Mar-2017 02:00,7.2,
10-Mar-2017 03:00,7.2,
10-Mar-2017 04:00,6.3,
10-Mar-2017 05:00,7,
10-Mar-2017 06:00,6.3,
10-Mar-2017 07:00,7.3,
10-Mar-2017 08:00,7.9,
10-Mar-2017 09:00,10,
10-Mar-2017 10:00,7.7,
10-Mar-2017 11:00,4.6,
10-Mar-2017 12:00,4.4,
10-Mar-2017 13:00,6.4,
10-Mar-2017 14:00,6.7,
10-Mar-2017 15:00,8.9,
10-Mar-2017 16:00,7.9,
10-Mar-2017 17:00,28,
10-Mar-2017 18:00,20.2,
10-Mar-2017 19:00,7.5,
10-Mar-2017 20:00,6.6,
10-Mar-2017 21:00,8.4,
10-Mar-2017 22:00,5.5,
10-Mar-2017 23:00,5.5,
11-Mar-2017 00:00,6.1,
11-Mar-2017 01:00,6.1,
11-Mar-2017 02:00,6,
11-Mar-2017 03:00,7.1,
11-Mar-2017 04:00,6.6,
11-Mar-2017 05:00,6.8,
11-Mar-2017 06:00,8.1,
11-Mar-2017 07:00,7.5,
11-Mar-2017 08:00,7.5,
11-Mar-2017 09:00,24.4,
11-Mar-2017 10:00,19.6,
11-Mar-2017 11:00,11.8,
11-Mar-2017 12:00,6.1,
11-Mar-2017 13:00,5.1,
11-Mar-2017 14:00,3.7,
11-Mar-2017 15:00,5.9,
11-Mar-2017 16:00,5.6,
11-Mar-2017 17:00,13.3,
11-Mar-2017 18:00,15.5,
11-Mar-2017 19:00,7.7,
11-Mar-2017 20:00,6.5,
11-Mar-2017 21:00,5.8,
11-Mar-2017 22:00,5.7,
11-Mar-2017 23:00,5.6,
12-Mar-2017 00:00,6.3,
12-Mar-2017 01:00,5,
12-Mar-2017 02:00,6.5,
12-Mar-2017 03:00,5.3,
12-Mar-2017 04:00,6.2,
12-Mar-2017 05:00,6.6,
12-Mar-2017 06:00,9.7,
12-Mar-2017 07:00,8.2,
12-Mar-2017 08:00,9.5,
12-Mar-2017 09:00,8.6,
12-Mar-2017 10:00,11.1,
12-Mar-2017 11:00,6.6,
12-Mar-2017 12:00,7.8,
12-Mar-2017 13:00,5.1,
12-Mar-2017 14:00,4.6,
12-Mar-2017 15:00,5,
12-Mar-2017 16:00,7.2,
12-Mar-2017 17:00,8.2,
12-Mar-2017 18:00,7.5,
12-Mar-2017 19:00,9.4,
12-Mar-2017 20:00,6.4,
12-Mar-2017 21:00,8,
12-Mar-2017 22:00,4.8,
12-Mar-2017 23:00,11.3,
13-Mar-2017 00:00,6.2,
13-Mar-2017 01:00,5.4,
13-Mar-2017 02:00,5,
13-Mar-2017 03:00,6,
13-Mar-2017 04:00,6.6,
13-Mar-2017 05:00,7.3,
13-Mar-2017 06:00,7.9,
13-Mar-2017 07:00,9.4,
13-Mar-2017 08:00,8.1,
13-Mar-2017 09:00,7,
13-Mar-2017 10:00,6.7,
13-Mar-2017 11:00,4.3,
13-Mar-2017 12:00,4.3,
13-Mar-2017 13:00,6,
13-Mar-2017 14:00,8.1,
13-Mar-2017 15:00,8.9,
13-Mar-2017 16:00,8.7,
13-Mar-2017 17:00,10.2,
13-Mar-2017 18:00,10.3,
13-Mar-2017 19:00,8.8,
13-Mar-2017 20:00,7.5,
13-Mar-2017 21:00,7.4,
13-Mar-2017 22:00,5.8,
13-Mar-2017 23:00,6.6,
14-Mar-2017 00:00,10.1,
14-Mar-2017 01:00,11,
14-Mar-2017 02:00,6.5,
14-Mar-2017 03:00,11.5,
14-Mar-2017 04:00,13,
14-Mar-2017 05:00,7.8,
14-Mar-2017 06:00,10.1,
14-Mar-2017 07:00,11.2,
14-Mar-2017 08:00,11.2,
14-Mar-2017 09:00,12.5,
14-Mar-2017 10:00,14,
14-Mar-2017 11:00,9.4,
14-Mar-2017 12:00,9.8,
14-Mar-2017 13:00,10.5,
14-Mar-2017 14:00,11.9,
14-Mar-2017 15:00,6,
14-Mar-2017 16:00,9.7,
14-Mar-2017 17:00,16.5,
14-Mar-2017 18:00,8.8,
14-Mar-2017 19:00,8.8,
14-Mar-2017 20:00,7.9,
14-Mar-2017 21:00,7.6,
14-Mar-2017 22:00,7.7,
14-Mar-2017 23:00,7,
15-Mar-2017 00:00,6.7,
15-Mar-2017 01:00,9,
15-Mar-2017 02:00,6.6,
15-Mar-2017 03:00,5.4,
15-Mar-2017 04:00,8.6,
15-Mar-2017 05:00,10.1,
15-Mar-2017 06:00,19.2,
15-Mar-2017 07:00,22.5,
15-Mar-2017 08:00,25,
15-Mar-2017 09:00,9.5,
15-Mar-2017 10:00,7.5,
15-Mar-2017 11:00,15.8,
15-Mar-2017 12:00,5.8,
15-Mar-2017 13:00,12.4,
15-Mar-2017 14:00,7,
15-Mar-2017 15:00,15,
15-Mar-2017 16:00,54.5,
15-Mar-2017 17:00,21.3,
15-Mar-2017 18:00,15.9,
15-Mar-2017 19:00,18.6,
15-Mar-2017 20:00,11.1,
15-Mar-2017 21:00,12.7,
15-Mar-2017 22:00,7.9,
15-Mar-2017 23:00,8.5,
16-Mar-2017 00:00,14,
16-Mar-2017 01:00,7.5,
16-Mar-2017 02:00,6.1,
16-Mar-2017 03:00,7.8,
16-Mar-2017 04:00,8.5,
16-Mar-2017 05:00,21.8,
16-Mar-2017 06:00,19.8,
16-Mar-2017 07:00,16.8,
16-Mar-2017 08:00,14.5,
16-Mar-2017 09:00,13.1,
16-Mar-2017 10:00,22.9,
16-Mar-2017 11:00,13.1,
16-Mar-2017 12:00,5.1,
16-Mar-2017 13:00,11.2,
16-Mar-2017 14:00,10.3,
16-Mar-2017 15:00,13.5,
16-Mar-2017 16:00,12.6,
16-Mar-2017 17:00,39.8,
16-Mar-2017 18:00,13.4,
16-Mar-2017 19:00,12.2,
16-Mar-2017 20:00,13.5,
16-Mar-2017 21:00,10.8,
16-Mar-2017 22:00,10.8,
16-Mar-2017 23:00,9.9,
17-Mar-2017 00:00,9.6,
17-Mar-2017 01:00,9.7,
17-Mar-2017 02:00,9.7,
17-Mar-2017 03:00,11.3,
17-Mar-2017 04:00,9.6,
17-Mar-2017 05:00,15.2,
17-Mar-2017 06:00,11.6,
17-Mar-2017 07:00,14.2,
17-Mar-2017 08:00,15,
17-Mar-2017 09:00,11.5,
17-Mar-2017 10:00,9.3,
17-Mar-2017 11:00,9.9,
17-Mar-2017 12:00,10.7,
17-Mar-2017 13:00,8.8,
17-Mar-2017 14:00,12.4,
17-Mar-2017 15:00,15,
17-Mar-2017 16:00,12.4,
17-Mar-2017 17:00,9.4,
17-Mar-2017 18:00,12.8,
17-Mar-2017 19:00,12.6,
17-Mar-2017 20:00,12.6,
17-Mar-2017 21:00,11.8,
17-Mar-2017 22:00,11.8,
17-Mar-2017 23:00,13,
18-Mar-2017 00:00,12.1,
18-Mar-2017 01:00,12.1,
18-Mar-2017 02:00,11.2,
18-Mar-2017 03:00,13.7,
18-Mar-2017 04:00,12.9,
18-Mar-2017 05:00,12.3,
18-Mar-2017 06:00,14.4,
18-Mar-2017 07:00,17.8,
18-Mar-2017 08:00,6.3,
18-Mar-2017 09:00,9.1,
18-Mar-2017 10:00,7.8,
18-Mar-2017 11:00,7.7,
18-Mar-2017 12:00,16.8,
18-Mar-2017 13:00,10.3,
18-Mar-2017 14:00,12.3,
18-Mar-2017 15:00,10,
18-Mar-2017 16:00,7.9,
18-Mar-2017 17:00,7.3,
18-Mar-2017 18:00,8.2,
18-Mar-2017 19:00,6.9,
18-Mar-2017 20:00,6.4,
18-Mar-2017 21:00,8.7,
18-Mar-2017 22:00,3.9,
18-Mar-2017 23:00,8.6,
19-Mar-2017 00:00,14.3,
19-Mar-2017 01:00,13.4,
19-Mar-2017 02:00,10.9,
19-Mar-2017 03:00,13,
19-Mar-2017 04:00,13.6,
19-Mar-2017 05:00,16.4,
19-Mar-2017 06:00,17.2,
19-Mar-2017 07:00,22.7,
19-Mar-2017 08:00,16.4,
19-Mar-2017 09:00,13.2,
19-Mar-2017 10:00,9.7,
19-Mar-2017 11:00,6.1,
19-Mar-2017 12:00,12.1,
19-Mar-2017 13:00,8.2,
19-Mar-2017 14:00,7.9,
19-Mar-2017 15:00,12.7,
19-Mar-2017 16:00,10.7,
19-Mar-2017 17:00,11.4,
19-Mar-2017 18:00,9.4,
19-Mar-2017 19:00,9.4,
19-Mar-2017 20:00,8.4,
19-Mar-2017 21:00,8,
19-Mar-2017 22:00,8.5,
19-Mar-2017 23:00,9.3,
20-Mar-2017 00:00,8.1,
20-Mar-2017 01:00,10.6,
20-Mar-2017 02:00,9.3,
20-Mar-2017 03:00,10.4,
20-Mar-2017 04:00,14.1,
20-Mar-2017 05:00,37.3,
20-Mar-2017 06:00,13.3,
20-Mar-2017 07:00,12,
20-Mar-2017 08:00,8.9,
20-Mar-2017 09:00,8.4,
20-Mar-2017 10:00,6.8,
20-Mar-2017 11:00,4.4,
20-Mar-2017 12:00,8.9,
20-Mar-2017 13:00,10.6,
20-Mar-2017 14:00,8.6,
20-Mar-2017 15:00,11.3,
20-Mar-2017 16:00,9.1,
20-Mar-2017 17:00,6.5,
20-Mar-2017 18:00,5.2,
20-Mar-2017 19:00,6.6,
20-Mar-2017 20:00,15.8,
20-Mar-2017 21:00,20.4,
20-Mar-2017 22:00,18.4,
20-Mar-2017 23:00,16.9,
21-Mar-2017 00:00,18.8,
21-Mar-2017 01:00,17.1,
21-Mar-2017 02:00,15.7,
21-Mar-2017 03:00,14.9,
21-Mar-2017 04:00,18.9,
21-Mar-2017 05:00,19.1,
21-Mar-2017 06:00,19.9,
21-Mar-2017 07:00,16.6,
21-Mar-2017 08:00,19.2,
21-Mar-2017 09:00,16.3,
21-Mar-2017 10:00,9.2,
21-Mar-2017 11:00,23.9,
21-Mar-2017 12:00,18.2,
21-Mar-2017 13:00,1.5,
21-Mar-2017 14:00,6,
21-Mar-2017 15:00,6.5,
21-Mar-2017 16:00,3,
21-Mar-2017 17:00,2.4,
21-Mar-2017 18:00,,BA
21-Mar-2017 19:00,26.4,
21-Mar-2017 20:00,22.6,
21-Mar-2017 21:00,10.7,
21-Mar-2017 22:00,9.1,
21-Mar-2017 23:00,9.3,
22-Mar-2017 00:00,9.9,
22-Mar-2017 01:00,7.3,
22-Mar-2017 02:00,8,
22-Mar-2017 03:00,10.2,
22-Mar-2017 04:00,8.9,
22-Mar-2017 05:00,11.5,
22-Mar-2017 06:00,10.6,
22-Mar-2017 07:00,6.7,
22-Mar-2017 08:00,8.4,
22-Mar-2017 09:00,7.8,
22-Mar-2017 10:00,10,
22-Mar-2017 11:00,17.2,
22-Mar-2017 12:00,8,
22-Mar-2017 13:00,10.3,
22-Mar-2017 14:00,11.1,
22-Mar-2017 15:00,55.6,
22-Mar-2017 16:00,16.3,
22-Mar-2017 17:00,8.4,
22-Mar-2017 18:00,12,
22-Mar-2017 19:00,5,
22-Mar-2017 20:00,7.2,
22-Mar-2017 21:00,4.9,
22-Mar-2017 22:00,6.2,
22-Mar-2017 23:00,6.2,
23-Mar-2017 00:00,4.7,
23-Mar-2017 01:00,4.2,
23-Mar-2017 02:00,3.2,
23-Mar-2017 03:00,3.8,
23-Mar-2017 04:00,5.8,
23-Mar-2017 05:00,6.2,
23-Mar-2017 06:00,59.3,
23-Mar-2017 07:00,41,
23-Mar-2017 08:00,29.4,
23-Mar-2017 09:00,20.4,
23-Mar-2017 10:00,17.4,
23-Mar-2017 11:00,7.8,
23-Mar-2017 12:00,4.3,
23-Mar-2017 13:00,4.3,
23-Mar-2017 14:00,5.3,
23-Mar-2017 15:00,5.7,
23-Mar-2017 16:00,5.7,
23-Mar-2017 17:00,11,
23-Mar-2017 18:00,13.1,
23-Mar-2017 19:00,13,
23-Mar-2017 20:00,8.6,
23-Mar-2017 21:00,12.4,
23-Mar-2017 22:00,7.3,
23-Mar-2017 23:00,7.4,
24-Mar-2017 00:00,6,
24-Mar-2017 01:00,6.5,
24-Mar-2017 02:00,6.7,
24-Mar-2017 03:00,6.4,
24-Mar-2017 04:00,7,
24-Mar-2017 05:00,8.2,
24-Mar-2017 06:00,9.5,
24-Mar-2017 07:00,10.2,
24-Mar-2017 08:00,9,
24-Mar-2017 09:00,7.5,
24-Mar-2017 10:00,9.5,
24-Mar-2017 11:00,7.5,
24-Mar-2017 12:00,6.8,
24-Mar-2017 13:00,5.9,
24-Mar-2017 14:00,11.7,
24-Mar-2017 15:00,9.2,
24-Mar-2017 16:00,6.8,
24-Mar-2017 17:00,15.4,
24-Mar-2017 18:00,6.1,
24-Mar-2017 19:00,5.4,
24-Mar-2017 20:00,7.9,
24-Mar-2017 21:00,9.1,
24-Mar-2017 22:00,7.8,
24-Mar-2017 23:00,5.9,
25-Mar-2017 00:00,5.7,
25-Mar-2017 01:00,5.4,
25-Mar-2017 02:00,7.4,
25-Mar-2017 03:00,12.7,
25-Mar-2017 04:00,11.9,
25-Mar-2017 05:00,26.4,
25-Mar-2017 06:00,12.6,
25-Mar-2017 07:00,8.9,
25-Mar-2017 08:00,8.1,
25-Mar-2017 09:00,6.8,
25-Mar-2017 10:00,6.5,
25-Mar-2017 11:00,5,
25-Mar-2017 12:00,4.8,
25-Mar-2017 13:00,6,
25-Mar-2017 14:00,4.4,
25-Mar-2017 15:00,4.1,
25-Mar-2017 16:00,5.4,
25-Mar-2017 17:00,6.3,
25-Mar-2017 18:00,5.4,
25-Mar-2017 19:00,7.2,
25-Mar-2017 20:00,9.4,
25-Mar-2017 21:00,7.2,
25-Mar-2017 22:00,7.4,
25-Mar-2017 23:00,6.6,
26-Mar-2017 00:00,5,
26-Mar-2017 01:00,6,
26-Mar-2017 02:00,5.3,
26-Mar-2017 03:00,4.8,
26-Mar-2017 04:00,6,
26-Mar-2017 05:00,7.1,
26-Mar-2017 06:00,10.1,
26-Mar-2017 07:00,9.8,
26-Mar-2017 08:00,8.8,
26-Mar-2017 09:00,7.2,
26-Mar-2017 10:00,6,
26-Mar-2017 11:00,5.9,
26-Mar-2017 12:00,6.6,
26-Mar-2017 13:00,7.8,
26-Mar-2017 14:00,6.6,
26-Mar-2017 15:00,6.1,
26-Mar-2017 16:00,14.3,
26-Mar-2017 17:00,7.5,
26-Mar-2017 18:00,7.6,
26-Mar-2017 19:00,6.4,
26-Mar-2017 20:00,9.8,
26-Mar-2017 21:00,6,
26-Mar-2017 22:00,7.7,
26-Mar-2017 23:00,8,
27-Mar-2017 00:00,9.6,
27-Mar-2017 01:00,7.5,
27-Mar-2017 02:00,4.5,
27-Mar-2017 03:00,8.7,
27-Mar-2017 04:00,6.5,
27-Mar-2017 05:00,4.8,
27-Mar-2017 06:00,8.2,
27-Mar-2017 07:00,8.9,
27-Mar-2017 08:00,8.8,
27-Mar-2017 09:00,6.8,
27-Mar-2017 10:00,7.9,
27-Mar-2017 11:00,6.2,
27-Mar-2017 12:00,6,
27-Mar-2017 13:00,8.9,
27-Mar-2017 14:00,12.7,
27-Mar-2017 15:00,19.9,
27-Mar-2017 16:00,11.1,
27-Mar-2017 17:00,14.9,
27-Mar-2017 18:00,28.1,
27-Mar-2017 19:00,250.4,
27-Mar-2017 20:00,354.5,
27-Mar-2017 21:00,293,
27-Mar-2017 22:00,136.5,
27-Mar-2017 23:00,67.4,
28-Mar-2017 00:00,35.1,
28-Mar-2017 01:00,22.5,
28-Mar-2017 02:00,19.1,
28-Mar-2017 03:00,9.5,
28-Mar-2017 04:00,5.7,
28-Mar-2017 05:00,4.8,
28-Mar-2017 06:00,7.3,
28-Mar-2017 07:00,12.9,
28-Mar-2017 08:00,43.1,
28-Mar-2017 09:00,34,
28-Mar-2017 10:00,45.3,
28-Mar-2017 11:00,35.8,
28-Mar-2017 12:00,18.5,
28-Mar-2017 13:00,11.2,
28-Mar-2017 14:00,8.4,
28-Mar-2017 15:00,8,
28-Mar-2017 16:00,7.1,
28-Mar-2017 17:00,8.8,
28-Mar-2017 18:00,8.5,
28-Mar-2017 19:00,11.7,
28-Mar-2017 20:00,8.7,
28-Mar-2017 21:00,8.3,
28-Mar-2017 22:00,9.1,
28-Mar-2017 23:00,11.7,
29-Mar-2017 00:00,9.2,
29-Mar-2017 01:00,8.3,
29-Mar-2017 02:00,7.8,
29-Mar-2017 03:00,7.3,
29-Mar-2017 04:00,6.6,
29-Mar-2017 05:00,7.6,
29-Mar-2017 06:00,9.6,
29-Mar-2017 07:00,8,
29-Mar-2017 08:00,8.9,
29-Mar-2017 09:00,8.7,
29-Mar-2017 10:00,6.4,
29-Mar-2017 11:00,5.6,
29-Mar-2017 12:00,9.6,
29-Mar-2017 13:00,6.7,
29-Mar-2017 14:00,11,
29-Mar-2017 15:00,7.5,
29-Mar-2017 16:00,9.2,
29-Mar-2017 17:00,8.5,
29-Mar-2017 18:00,12.2,
29-Mar-2017 19:00,13.1,
29-Mar-2017 20:00,8.2,
29-Mar-2017 21:00,7.2,
29-Mar-2017 22:00,7.1,
29-Mar-2017 23:00,7.4,
30-Mar-2017 00:00,9.8,
30-Mar-2017 01:00,9.4,
30-Mar-2017 02:00,7.3,
30-Mar-2017 03:00,6.9,
30-Mar-2017 04:00,29.7,
30-Mar-2017 05:00,15.2,
30-Mar-2017 06:00,12.1,
30-Mar-2017 07:00,60.7,
30-Mar-2017 08:00,153.1,
30-Mar-2017 09:00,37.9,
30-Mar-2017 10:00,15,
30-Mar-2017 11:00,17.3,
30-Mar-2017 12:00,456.3,
30-Mar-2017 13:00,72,
30-Mar-2017 14:00,24.9,
30-Mar-2017 15:00,18.2,
30-Mar-2017 16:00,22.3,
30-Mar-2017 17:00,25.7,
30-Mar-2017 18:00,162.6,
30-Mar-2017 19:00,33.2,
30-Mar-2017 20:00,269.3,
30-Mar-2017 21:00,168.7,
30-Mar-2017 22:00,172.5,
30-Mar-2017 23:00,196.5,
31-Mar-2017 00:00,159,
31-Mar-2017 01:00,192.8,
31-Mar-2017 02:00,387.5,
31-Mar-2017 03:00,451.2,
31-Mar-2017 04:00,441.6,
31-Mar-2017 05:00,,AV
31-Mar-2017 06:00,,AV
31-Mar-2017 07:00,,AV
31-Mar-2017 08:00,,AV
31-Mar-2017 09:00,,AV
31-Mar-2017 10:00,338.3,
31-Mar-2017 11:00,427.7,
31-Mar-2017 12:00,295.6,
31-Mar-2017 13:00,222,
31-Mar-2017 14:00,266.6,
31-Mar-2017 15:00,254.6,
31-Mar-2017 16:00,89.8,
31-Mar-2017 17:00,54.7,
31-Mar-2017 18:00,38,
31-Mar-2017 19:00,72.1,
31-Mar-2017 20:00,242.6,
31-Mar-2017 21:00,244.8,
31-Mar-2017 22:00,133.3,
31-Mar-2017 23:00,64.2,
